Regional Weather Roundup
Issued by NWS

Home | Current Version | Previous Version | Graphics & Text | Print | Product List | Glossary On
Versions: 1 2 3 4 5 6 7 8 9 10 11 12 13 14 15 16 17 18 19 20 21 22 23 24 25 26 27 28 29 30 31 32 33 34 35 36 37 38 39 40 41 42 43 44 45 46 47 48 49 50
000
ASUS45 KBOU 252307
RWRCO

WEATHER ROUNDUP FOR COLORADO
NATIONAL WEATHER SERVICE DENVER/BOULDER CO
500 PM MDT FRI JUL 25 2014

NOTE: "FAIR" INDICATES FEW OR NO CLOUDS BELOW 12000 FEET WITH NO
SIGNIFICANT WEATHER AND/OR OBSTRUCTIONS TO VISIBILITY.

COZ001>005-013-030-031-260000-
...NORTHWEST COLORADO...

CITY           SKY/WX    TMP DP  RH WIND       PRES   REMARKS
CRAIG          PTSUNNY   76  53  44 S12       30.13F
HAYDEN         PTSUNNY   84  43  23 SW14G24   30.16F
MEEKER         TSTM      79  46  31 NW23G29   30.19R
MOUNT WERNER   NOT AVBL
STEAMBOAT SPGS PTSUNNY   76  45  33 S8G25     30.22R
WALDEN         PTSUNNY   73  37  27 SW13G21   30.30S
$$

COZ006>008-011-260000-
...WEST CENTRAL VALLEYS...

CITY           SKY/WX    TMP DP  RH WIND       PRES   REMARKS
GRAND JUNCTION CLOUDY    74  61  63 SE8       30.08F
MONTROSE       PTSUNNY   85  52  32 N21G26    30.18S
EAGLE          PTSUNNY   79  48  34 SW18      30.22R
RIFLE          CLOUDY    82  47  29 SW12      30.15R
DELTA          PTSUNNY   91  49  23 SW7       30.12F
NUCLA          PTSUNNY   88  45  22 N3        30.20F
$$

COZ017>023-064>068-260000-
...SOUTHWEST COLORADO...

CITY           SKY/WX    TMP DP  RH WIND       PRES   REMARKS
DURANGO        MOSUNNY   88  41  19 W14G22    30.19F
CORTEZ         SUNNY     91  43  18 W10       30.15F
PAGOSA SPRINGS MOSUNNY   86  37  17 SW14      30.28F
TELLURIDE      MOSUNNY   73  48  40 W8        30.43F
WOLF CREEK PAS NOT AVBL
$$

COZ009-010-012-014-032>034-037-058>063-260000-
...CENTRAL COLORADO...

CITY           SKY/WX    TMP DP  RH WIND       PRES   REMARKS
ASPEN          TSTM      67  53  61 NW10G20   30.34R
BUENA VISTA    PTSUNNY   81  38  21 N8        30.30F
COPPER MTN     CLOUDY    61  37  41 W21G28    30.66S THUNDER
BERTHOUD PASS  CLOUDY    52  37  58 N9        30.70R
COTTONWOOD PAS PTSUNNY   79  28  15 N7        30.46F
GUNNISON       PTSUNNY   75  48  38 N6        30.32F
KREMMLING      PTSUNNY   75  37  25 NE6       30.26R
LEADVILLE      CLOUDY    65  40  39 S12       30.47R THUNDER
MONARCH PASS   PTSUNNY   59  37  44 SW23      30.77S THUNDER
SALIDA         PTSUNNY  N/A N/A N/A CALM      30.34S
SUNLIGHT       CLOUDY    54  52  94 CALM      30.58F
WILKERSON PASS NOT AVBL
$$

COZ069>075-260000-
...SAN LUIS VALLEY/SANGRE DE CRISTO MOUNTAINS...

CITY           SKY/WX    TMP DP  RH WIND       PRES   REMARKS
ALAMOSA        CLOUDY    76  48  37 W15       30.28F
LA VETA PASS   CLOUDY    68  39  34 W7        30.50F
SAGUACHE       CLOUDY    72  48  43 NW28G36   30.37R
$$

COZ035-036-038>040-260000-
...NORTHERN COLORADO FRONT RANGE...

CITY           SKY/WX    TMP DP  RH WIND       PRES   REMARKS
DENVER INTL AP CLOUDY    80  51  36 S30G38    30.08S
DMNS CITY PARK   N/A     80  52  37 S15       30.10R
AURORA         PTSUNNY   70  57  64 SE24G31   30.11F
FRONT RANGE AP NOT AVBL
ERIE MUNI ARPT PTSUNNY   86  48  26 S12       30.07R
BOULDER MUN AP PTSUNNY   84  50  30 E5        30.08R
CENTENNIAL     PTSUNNY   76  57  51 SE16      30.16F
BROOMFIELD     NOT AVBL
FORT COLLINS   CLOUDY    82  55  39 E15       30.03F
LONGMONT       CLOUDY    85  49  28 NE5       30.08R
$$

COZ041-046-047-076>085-087-088-260000-
...PIKES PEAK/PALMER DIVIDE AND SOUTHERN FOOTHILLS...

CITY           SKY/WX    TMP DP  RH WIND       PRES   REMARKS
COLO. SPRINGS  LGT RAIN  75  52  44 NW13G23   30.21R
A. F. ACADEMY  CLOUDY    74  50  42 S3        30.22F
ELLICOTT       TSTM      79  48  34 NW20G28   30.17R
FALCON         RAIN      70  51  51 W14G28    30.28R
FORT CARSON    LGT RAIN  70  57  63 NW22G29   30.16R
LIMON          PTSUNNY   89  43  20 E12       30.07R
MONUMENT HILL  LGT RAIN  61  55  82 N7        30.28S
TRINIDAD       PTSUNNY   92  43  18 VRB3      30.07F
$$

COZ042>045-048>051-090-091-260000-
...NORTHEAST COLORADO...

CITY           SKY/WX    TMP DP  RH WIND       PRES   REMARKS
GREELEY ARPT   CLOUDY    75  61  60 W14       30.09R
AKRON          PTSUNNY   91  46  21 SE12      30.01R
BURLINGTON     SUNNY     94  57  28 E12       29.97F
WRAY             N/A     97  50  20 NE7       29.92F
STERLING       PTSUNNY   88  63  42 CALM      29.95R
HOLYOKE        SUNNY     90  61  37 E6        29.93F
FORT MORGAN    PTSUNNY   88  53  30 N6        30.01R
$$

COZ086-089-092>099-260000-
...SOUTHEAST COLORADO...

CITY           SKY/WX    TMP DP  RH WIND       PRES   REMARKS
PUEBLO         PTSUNNY   94  47  20 W21G32    30.00R THUNDER
LA JUNTA       SUNNY    101  47  16 VRB3      29.92F
LAMAR          SUNNY    102  48  16 CALM      29.86F
SPRINGFIELD      N/A     99  49  18 SE9       29.92F
$$


USA.gov is the U.S. government's official web portal to all federal, state and local government web resources and services.